KD3XC Weather Reports


time (UTC)temp
F
wind
direction
speed
knots
gust
knots
rain 1hr
in
rain 24hr
in
rain mn
in
humidity
%
barometer
mb
20260509213007 66 246 0.9 9.6 0.00 0.31 0.31 44 1008.3
20260509211511 65 236 0.9 5.2 0.00 0.31 0.31 43 1008.4
20260509210005 66 242 1.7 7.0 0.00 0.31 0.31 43 1008.4
20260509204502 66 248 1.7 8.7 0.00 0.31 0.31 42 1008.6
20260509203005 65 217 2.6 10.4 0.00 0.31 0.31 44 1008.6
20260509201600 65 253 0.9 7.0 0.00 0.31 0.31 42 1008.8
20260509200058 65 189 2.6 12.2 0.00 0.31 0.31 44 1009.0
20260509194556 66 225 1.7 7.8 0.00 0.31 0.31 43 1009.2
20260509193054 66 259 1.7 8.7 0.00 0.31 0.31 45 1009.5
20260509191552 65 40 2.6 8.7 0.00 0.31 0.31 24 1009.7
20260509190148 63 244 1.7 5.2 0.00 0.31 0.31 22 1009.7
20260509184542 61 263 0.9 5.2 0.00 0.31 0.31 29 1009.7
20260509183038 59 340 0.0 2.6 0.00 0.31 0.31 31 1009.8
20260509181533 57 217 0.0 1.7 0.00 0.31 0.31 34 1009.9
20260509180030 56 246 0.0 1.7 0.00 0.31 0.31 35 1009.8
20260509174526 55 234 0.0 3.5 0.00 0.31 0.31 37 1009.6
20260509173052 54 209 0.9 2.6 0.00 0.31 0.31 39 1009.5
20260509171530 53 319 0.0 1.7 0.00 0.31 0.31 41 1009.4
20260509170023 53 113 0.9 2.6 0.00 0.31 0.31 41 1009.4
20260509164522 53 199 0.9 3.5 0.00 0.31 0.31 42 1009.5
20260509163024 52 251 0.9 3.5 0.00 0.31 0.31 41 1009.6
20260509161521 52 275 0.9 7.8 0.00 0.31 0.31 41 1009.6
20260509160023 53 238 1.7 3.5 0.00 0.31 0.31 42 1009.8
20260509154520 53 242 1.7 4.3 0.00 0.31 0.31 43 1009.8
20260509153029 53 195 0.9 2.6 0.01 0.31 0.31 44 1010.0
20260509151518 52 238 0.9 5.2 0.02 0.31 0.31 44 1010.1
20260509150015 52 228 1.7 6.1 0.02 0.31 0.31 44 1010.2
20260509144515 52 217 0.9 3.5 0.02 0.31 0.31 44 1010.2
20260509143017 51 211 1.7 9.6 0.01 0.30 0.30 44 1010.3
20260509141513 52 179 0.9 2.6 0.01 0.28 0.28 44 1010.4
20260509140014 52 262 1.7 7.0 0.03 0.28 0.28 44 1010.3
20260509134512 51 221 0.9 3.5 0.05 0.28 0.28 45 1010.4
20260509133011 51 179 0.0 2.6 0.06 0.28 0.28 45 1010.2
20260509131510 51 259 0.9 4.3 0.06 0.28 0.28 44 1010.4
20260509130015 50 217 0.9 3.5 0.05 0.26 0.26 44 1010.6
20260509124511 50 211 0.9 3.5 0.04 0.24 0.24 44 1010.8
20260509123003 50 239 0.9 7.0 0.05 0.23 0.23 44 1010.6
20260509121501 50 263 0.9 3.5 0.05 0.22 0.22 44 1010.7
20260509120101 50 253 0.9 1.7 0.04 0.21 0.21 44 1010.7
20260509114627 50 240 0.0 1.7 0.04 0.20 0.20 44 1010.7
20260509113131 50 236 0.0 3.5 0.03 0.18 0.18 44 1010.6
20260509111557 49 232 0.9 1.7 0.02 0.17 0.17 44 1010.6
20260509110100 49 205 0.0 0.0 0.03 0.17 0.17 43 1010.5
20260509104554 49 186 0.0 0.0 0.03 0.16 0.16 43 1010.5
20260509103100 49 227 0.0 0.0 0.03 0.15 0.15 42 1010.5
20260509101559 49 227 0.0 0.9 0.06 0.15 0.15 40 1010.7
20260509100050 49 227 0.9 2.6 0.07 0.14 0.14 38 1010.7
20260509094550 50 196 0.0 0.0 0.09 0.13 0.13 36 1010.9
20260509093046 50 196 0.0 1.7 0.10 0.12 0.12 40 1011.3
20260509091544 51 196 0.0 2.6 0.09 0.09 0.09 46 1011.3
20260509090043 51 11 0.9 2.6 0.07 0.07 0.07 55 1011.2
20260509084539 52 278 0.9 3.5 0.04 0.04 0.04 57 1011.4
20260509083038 53 331 0.9 3.5 0.02 0.02 0.02 54 1011.2
20260509081537 54 215 0.9 4.3 0.00 0.00 0.00 50 1010.5
20260509080043 53 235 1.7 5.2 0.00 0.00 0.00 50 1010.1
20260509074537 52 234 0.9 8.7 0.00 0.00 0.00 55 1009.9
20260509073037 51 342 0.0 0.0 0.00 0.00 0.00 56 1009.4
20260509071534 52 328 0.0 0.0 0.00 0.00 0.00 56 1009.5
20260509070031 52 328 0.0 0.0 0.00 0.00 0.00 57 1009.4
20260509064530 52 327 0.0 0.0 0.00 0.00 0.00 55 1009.6
20260509063034 52 327 0.0 0.0 0.00 0.00 0.00 54 1009.5
20260509061530 52 327 0.0 0.0 0.00 0.00 0.00 55 1009.7
20260509060026 53 327 0.0 0.0 0.00 0.00 0.00 55 1009.9
20260509054522 53 325 0.0 0.0 0.00 0.00 0.00 53 1010.3
20260509053019 53 328 0.0 0.0 0.00 0.00 0.00 55 1010.7
20260509051516 54 329 0.0 0.0 0.00 0.00 0.00 55 1011.1
20260509050023 54 329 0.0 0.0 0.00 0.00 0.00 54 1011.2
20260509044514 54 329 0.0 0.0 0.00 0.00 0.00 54 1011.2
20260509043012 54 326 0.0 0.0 0.00 0.00 0.00 54 1011.4
20260509041518 55 327 0.0 0.0 0.00 0.00 0.00 55 1011.4
20260509040007 55 324 0.0 0.0 0.00 0.00 0.00 53 1011.6
20260509034506 55 324 0.0 1.7 0.00 0.00 0.00 53 1011.8
20260509033007 56 34 0.9 2.6 0.00 0.00 0.00 51 1011.8
20260509031520 57 44 0.0 1.7 0.00 0.00 0.00 48 1011.8
20260509030008 58 350 0.0 4.3 0.00 0.00 0.00 44 1011.9
20260509024506 58 318 1.7 5.2 0.00 0.00 0.00 43 1012.1
20260509023004 57 332 0.9 2.6 0.00 0.00 0.00 45 1012.1
20260509021505 57 217 0.0 1.7 0.00 0.00 0.00 45 1012.0
20260509020002 57 217 0.0 0.9 0.00 0.00 0.00 45 1011.7
20260509014502 57 217 0.0 0.0 0.00 0.00 0.00 45 1011.5
20260509013003 57 217 0.0 0.9 0.00 0.00 0.00 45 1011.3
20260509011600 58 217 0.0 0.0 0.00 0.00 0.00 45 1011.2
20260509010103 58 217 0.0 0.0 0.00 0.00 0.00 44 1011.2
20260509004609 59 217 0.0 0.9 0.00 0.00 0.00 44 1011.2
20260509003104 59 217 0.0 0.0 0.00 0.00 0.00 44 1011.3
20260509001559 60 217 0.0 1.7 0.00 0.00 0.00 40 1011.2
20260509000058 60 217 0.0 0.9 0.00 0.00 0.00 38 1011.0
20260508234559 61 217 0.0 1.7 0.00 0.00 0.00 38 1011.0
20260508233058 61 217 0.0 1.7 0.00 0.00 0.00 37 1010.9
20260508231559 61 217 0.0 1.7 0.00 0.00 0.00 37 1011.0
20260508230126 62 217 0.0 2.6 0.00 0.00 0.00 37 1011.0
20260508224603 62 172 0.0 2.6 0.00 0.00 0.00 37 1011.0
20260508223055 63 243 0.9 3.5 0.00 0.00 0.00 37 1011.0
20260508221554 63 240 1.7 7.8 0.00 0.00 0.00 35 1010.9
20260508220118 63 225 2.6 9.6 0.00 0.00 0.00 37 1011.0
20260508214556 64 230 0.0 2.6 0.00 0.00 0.00 34 1011.1
20260508213053 63 159 0.9 2.6 0.00 0.00 0.00 34 1011.5